331  
NZUS99 KDVN 200710  
HRRRRR  
HOURLY WEATHER ROUNDUP  
NATIONAL WEATHER SERVICE QUAD CITIES IA IL  
200 AM CDT WED OCT 20 2021  
 
NOTE: "FAIR" INDICATES FEW OR NO CLOUDS BELOW 12,000 FEET WITH  
NO SIGNIFICANT WEATHER AND/OR OBSTRUCTIONS TO VISIBILITY.  
------------------------------------------------------------------  
 
CITY SKY/WX TMP DP RH WIND PRES REMARKS  
BURLINGTON CLEAR 57 47 69 S9 30.03R  
CEDAR RAPIDS CLEAR 53 47 79 SE6 30.01S  
DAVENPORT CLEAR 57 46 66 S8 30.05R  
DUBUQUE LGT RAIN 51 46 83 S7 30.03S  
IOWA CITY CLEAR 51 45 79 CALM 30.03R  
MOLINE CLEAR 53 46 77 NE3 30.03S  
------------------------------------------------------------------  
THE STATIONS BELOW ARE NOT NWS STATIONS AND ARE NOT SUBJECT TO NWS  
QUALITY CONTROL. SOME STATIONS DO NOT REPORT WEATHER SUCH AS FOG.  
* - STATIONS THAT REPORT TMP AND DP IN WHOLE DEGREES CELSIUS, WHICH  
ARE THEN CONVERTED TO FAHRENHEIT.  
------------------------------------------------------------------  
 
CITY SKY/WX TMP DP RH WIND PRES REMARKS  
CLINTON CLEAR 52 47 83 SE5 30.05R  
FAIRFIELD * CLEAR 52 52 100 SE5 30.00R  
FORT MADISON * N/A 55 48 76 S6 30.03R  
FREEPORT PTCLDY 53 43 67 S3 30.07S  
INDEPENDENCE CLEAR 50 48 92 SE8 30.00S WCI 47  
KEOKUK * N/A 59 50 72 S7 30.02R  
MACOMB CLEAR 52 47 83 S7 30.06S  
MONTICELLO * CLEAR 48 48 100 CALM 30.02F  
MT PLEASANT * CLEAR 54 48 82 S8 30.02R  
MUSCATINE * CLEAR 48 46 93 CALM 30.03R  
SAVANNA * CLEAR 52 46 82 CALM 30.05S  
STERLING/R.F. CLEAR 49 47 93 E3 30.06S  
VINTON CLEAR 58 49 71 S7 30.00F  
WASHINGTON * CLEAR 52 52 100 SE5 30.00S  
------------------------------------------------------------------  
 
 
CLICK HERE TO GO TO PREVIOUS BULLETINS.

The Nexlab IL Page
The Nexlab IA Page
The Nexlab MO Page Main Text Page